WetterOnline ( https://www.wetteronline.at )

Wetter aktuell Neuruppin

Aktuelles Wetter: Neuruppin - Alt Ruppin (50m)

6-stündlich | Neueste Meldungen
Ortszeit Temperatur Wetter
Fr, 18.09. 8:00 3.7° C fast wolkenlos
Fr, 18.09. 2:00 4.7° C wolkig
Do, 17.09. 20:00 12.8° C leicht bewölkt
Do, 17.09. 14:00 17.5° C wolkenlos
Do, 17.09. 8:00 11.6° C wolkenlos
Do, 17.09. 2:00 14.4° C fast wolkenlos
Mi, 16.09. 20:00 21.1° C leicht bewölkt
Mi, 16.09. 14:00 26.3° C bewölkt
Ortszeit Temperatur Wetter
Fr, 18.09. 11:30 15.1° C leicht bewölkt
Fr, 18.09. 11:20 15.1° C leicht bewölkt
Fr, 18.09. 11:10 14.9° C leicht bewölkt
Fr, 18.09. 11:00 14.0° C wolkenlos
Fr, 18.09. 10:50 14.0° C wolkenlos
Fr, 18.09. 10:40 13.9° C fast wolkenlos
Fr, 18.09. 10:30 13.6° C leicht bewölkt
Fr, 18.09. 10:00 12.3° C wolkig
Fr, 18.09. 9:30 10.9° C wolkig
Fr, 18.09. 9:00 8.5° C wolkig
Fr, 18.09. 8:30 7.0° C leicht bewölkt
Fr, 18.09. 8:00 3.7° C fast wolkenlos
Ortszeit Relative Feuchte Sichtweite
Fr, 18.09. 8:00 95% 45 km
Fr, 18.09. 2:00 89% >70 km
Do, 17.09. 20:00 55% 55 km
Do, 17.09. 14:00 41% 60 km
Do, 17.09. 8:00 73% 65 km
Do, 17.09. 2:00 76% 35 km
Mi, 16.09. 20:00 73% 29 km
Mi, 16.09. 14:00 53% 35 km
Ortszeit Relative Feuchte Sichtweite
Fr, 18.09. 11:30 53% 45 km
Fr, 18.09. 11:20 53% -
Fr, 18.09. 11:10 56% -
Fr, 18.09. 11:00 59% 65 km
Fr, 18.09. 10:50 59% -
Fr, 18.09. 10:40 58% -
Fr, 18.09. 10:30 63% >70 km
Fr, 18.09. 10:00 71% 60 km
Fr, 18.09. 9:30 76% 65 km
Fr, 18.09. 9:00 81% 50 km
Fr, 18.09. 8:30 85% 60 km
Fr, 18.09. 8:00 95% 45 km
Ortszeit Niederschlagsmenge Niederschlagsart
Fr, 18.09. 8:00 0.0 l/m2 in 12 Std. -
Fr, 18.09. 2:00 0.0 l/m2 in 6 Std. -
Do, 17.09. 20:00 0.0 l/m2 in 12 Std. -
Do, 17.09. 14:00 0.0 l/m2 in 6 Std. -
Do, 17.09. 8:00 0.0 l/m2 in 12 Std. -
Do, 17.09. 2:00 0.0 l/m2 in 6 Std. -
Mi, 16.09. 20:00 0.0 l/m2 in 12 Std. -
Mi, 16.09. 14:00 0.0 l/m2 in 6 Std. -
Ortszeit Niederschlagsmenge Niederschlagsart
Fr, 18.09. 11:30 0.0 l/m2 in 1 Std. -
Fr, 18.09. 11:20 keine Meldung -
Fr, 18.09. 11:10 keine Meldung -
Fr, 18.09. 11:00 0.0 l/m2 in 1 Std. -
Fr, 18.09. 10:50 keine Meldung -
Fr, 18.09. 10:40 keine Meldung -
Fr, 18.09. 10:30 0.0 l/m2 in 1 Std. -
Fr, 18.09. 10:00 0.0 l/m2 in 1 Std. -
Fr, 18.09. 9:30 0.0 l/m2 in 1 Std. -
Fr, 18.09. 9:00 0.0 l/m2 in 1 Std. -
Fr, 18.09. 8:30 0.0 l/m2 in 1 Std. -
Fr, 18.09. 8:00 0.0 l/m2 in 1 Std. -
Ortszeit Stärke Spitze Richtung
km/h Bft. km/h Grad Sektor
Fr, 18.09. 8:00 0 0 7 - -
Fr, 18.09. 2:00 4 1 7 60° NO
Do, 17.09. 20:00 4 1 29 40° NO
Do, 17.09. 14:00 11 2 29 360° N
Do, 17.09. 8:00 13 3 31 350° N
Do, 17.09. 2:00 11 2 43 350° N
Mi, 16.09. 20:00 9 2 30 320° NW
Mi, 16.09. 14:00 7 2 14 260° W
Ortszeit Stärke Spitze Richtung
km/h Bft. km/h Grad Sektor
Fr, 18.09. 11:30 4 1 7 120° SO
Fr, 18.09. 11:20 4 1 - 120° SO
Fr, 18.09. 11:10 4 1 - 340° N
Fr, 18.09. 11:00 4 1 11 170° S
Fr, 18.09. 10:50 4 1 - 170° S
Fr, 18.09. 10:40 4 1 - 140° SO
Fr, 18.09. 10:30 4 1 7 120° SO
Fr, 18.09. 10:00 4 1 7 110° O
Fr, 18.09. 9:30 4 1 7 130° SO
Fr, 18.09. 9:00 2 1 4 110° O
Fr, 18.09. 8:30 2 1 4 100° O
Fr, 18.09. 8:00 0 0 4 - -
Ortszeit Untergrenze Bedeckung Gattung
total tief tief mittel hoch
Fr, 18.09. 8:00 9000 m 1/8 0/8 - - -
Fr, 18.09. 2:00 10500 m 8/8 0/8 - - -
Do, 17.09. 20:00 9000 m 5/8 0/8 - - -
Do, 17.09. 14:00 10500 m 0/8 0/8 - - -
Do, 17.09. 8:00 - 0/8 0/8 - - -
Do, 17.09. 2:00 630 m 1/8 1/8 - - -
Mi, 16.09. 20:00 3600 m 5/8 2/8 - - -
Mi, 16.09. 14:00 6300 m 8/8 7/8 - - -
Ortszeit Bedeckungsgrad in Achtel und Wolkenuntergrenze
Fr, 18.09. 11:30 6(10500m)
Fr, 18.09. 11:20 6(10500m)
Fr, 18.09. 11:10 4(10500m)
Fr, 18.09. 11:00 keine Wolken
Fr, 18.09. 10:50 keine Wolken
Fr, 18.09. 10:40 1(10500m)
Fr, 18.09. 10:30 1(9000m) 4(10500m)
Fr, 18.09. 10:00 3(9000m) 4(10500m) 7(10500m)
Fr, 18.09. 9:30 4(9000m) 6(10500m) 7(10500m)
Fr, 18.09. 9:00 3(9000m) 7(10500m) 6(10500m)
Fr, 18.09. 8:30 2(9000m) 6(10500m)
Fr, 18.09. 8:00 1(9000m)
Ortszeit Luftdruck NN (hPa) Tendenz (hPa in 3 Std.)
Fr, 18.09. 8:00 1031 + 0,3
Fr, 18.09. 2:00 1031 - 0,3
Do, 17.09. 20:00 1030 + 0,8
Do, 17.09. 14:00 1030 + 0,4
Do, 17.09. 8:00 1027 + 3,0
Do, 17.09. 2:00 1023 + 2,1
Mi, 16.09. 20:00 1018 + 1,6
Mi, 16.09. 14:00 1016 - 0,7
Ortszeit Luftdruck NN (hPa) Tendenz (hPa in 3 Std.)
Fr, 18.09. 11:30 1031 + 0,6
Fr, 18.09. 11:20 1031 keine Meldung
Fr, 18.09. 11:10 1031 keine Meldung
Fr, 18.09. 11:00 1032 + 0,8
Fr, 18.09. 10:50 1032 keine Meldung
Fr, 18.09. 10:40 1032 keine Meldung
Fr, 18.09. 10:30 1032 + 0,9
Fr, 18.09. 10:00 1031 + 1,0
Fr, 18.09. 9:30 1031 + 0,9
Fr, 18.09. 9:00 1031 + 0,7
Fr, 18.09. 8:30 1031 + 0,6
Fr, 18.09. 8:00 1031 + 0,3
Ortszeit Schneehöhe (cm)
Fr, 18.09. 8:00 -
Fr, 18.09. 2:00 -
Do, 17.09. 20:00 -
Do, 17.09. 14:00 -
Do, 17.09. 8:00 -
Do, 17.09. 2:00 -
Mi, 16.09. 20:00 -
Mi, 16.09. 14:00 -
Ortszeit Schneehöhe (cm)
Fr, 18.09. 11:30 -
Fr, 18.09. 11:20 -
Fr, 18.09. 11:10 -
Fr, 18.09. 11:00 -
Fr, 18.09. 10:50 -
Fr, 18.09. 10:40 -
Fr, 18.09. 10:30 -
Fr, 18.09. 10:00 -
Fr, 18.09. 9:30 -
Fr, 18.09. 9:00 -
Fr, 18.09. 8:30 -
Fr, 18.09. 8:00 -
Link zu dieser Seite / Seite empfehlen

Das Wetter in ...